Regional Weather Roundup
Issued by NWS

Home | Current Version | Previous Version | Text Only | Print | Product List | Glossary Off
Versions: 1 2 3 4 5 6 7 8 9 10 11 12 13 14 15 16 17 18 19 20 21 22 23 24 25 26 27 28 29 30 31 32 33 34 35 36 37 38 39 40 41 42 43 44 45 46 47 48 49 50

000
ASUS45 KBOU 270207
RWRCO

WEATHER ROUNDUP FOR COLORADO
NATIONAL WEATHER SERVICE DENVER/BOULDER CO
800 PM MDT THU MAR 26 2015

NOTE: "FAIR" INDICATES FEW OR NO CLOUDS BELOW 12000 FEET WITH NO
SIGNIFICANT WEATHER AND/OR OBSTRUCTIONS TO VISIBILITY.

COZ001>005-013-030-031-270300-
...NORTHWEST COLORADO...

CITY           SKY/WX    TMP DP  RH WIND       PRES   REMARKS
CRAIG          MOCLDY    45  27  49 SW10      30.24S
HAYDEN         MOCLDY    45  23  42 W6        30.25R
MEEKER         CLEAR     43  28  55 CALM      30.26S
MOUNT WERNER   NOT AVBL
STEAMBOAT SPGS MOCLDY    42  28  55 E6        30.26S
WALDEN         CLOUDY    37  27  65 S9        30.27S
$$

COZ006>008-011-270300-
...WEST CENTRAL VALLEYS...

CITY           SKY/WX    TMP DP  RH WIND       PRES   REMARKS
GRAND JUNCTION PTCLDY    54  17  23 N8        30.22S
MONTROSE       CLEAR     54  19  25 NE3       30.28R
EAGLE          MOCLDY    54  23  30 CALM      30.29
RIFLE          PTCLDY    54  21  27 W10       30.24R
DELTA          CLEAR     60  19  20 NW8       30.24R
NUCLA          CLEAR     52  16  24 W8        30.31R
$$

COZ017>023-064>068-270300-
...SOUTHWEST COLORADO...

CITY           SKY/WX    TMP DP  RH WIND       PRES   REMARKS
DURANGO        CLEAR     52  16  24 E5        30.22R
CORTEZ         CLEAR     54  15  21 W8        30.26R
PAGOSA SPRINGS CLEAR     47  18  32 CALM      30.28R
TELLURIDE      NOT AVBL
WOLF CREEK PAS PTCLDY    30  12  47 SW12      30.46R WCI  21
$$

COZ009-010-012-014-032>034-037-058>063-270300-
...CENTRAL COLORADO...

CITY           SKY/WX    TMP DP  RH WIND       PRES   REMARKS
ASPEN          MOCLDY    40  26  57 NW3       30.31R
BUENA VISTA    MOCLDY    47  18  31 N5        30.26R
COPPER MTN     CLOUDY    32  21  64 W25G36    30.40S WCI  19
BERTHOUD PASS  CLOUDY    21  14  73 W36G48    30.36R HAZE    WCI   2
COTTONWOOD PAS MOCLDY    43  18  36 SE8       30.33R
GUNNISON       PTCLDY    45  18  33 SW9       30.32R
KREMMLING      CLOUDY    43  23  45 CALM      30.30R
LEADVILLE      MOCLDY    34  18  52 N12G22    30.34R WCI  25
SALIDA         CLOUDY    54  18  24 W8        30.31R
SUNLIGHT       PTCLDY    34  21  60 SW3       30.44R
WILKERSON PASS CLOUDY    30  18  59 N13G29    30.36R WCI  20
$$

COZ069>075-270300-
...SAN LUIS VALLEY/SANGRE DE CRISTO MOUNTAINS...

CITY           SKY/WX    TMP DP  RH WIND       PRES   REMARKS
ALAMOSA        MOCLDY    51  15  23 N9        30.23R
LA VETA PASS   PTCLDY    34  12  40 CALM      30.32R
SAGUACHE       MOCLDY    46  18  31 NW15G22   30.28R
$$

COZ035-036-038>040-270300-
...NORTHERN COLORADO FRONT RANGE...

CITY           SKY/WX    TMP DP  RH WIND       PRES   REMARKS
DENVER INTL AP CLOUDY    55  25  31 W5        30.14S
DMNS CITY PARK   N/A     56  22  27 W7G14     30.14S
AURORA         NOT AVBL
FRONT RANGE AP MOCLDY    55  32  41 MISG        N/A
ERIE MUNI ARPT MOCLDY    52  27  37 SW5       30.14R
BOULDER MUN AP MOCLDY    55  25  30 W18G24    30.14R
CENTENNIAL     MOCLDY    52  25  35 NW8       30.16R
BROOMFIELD     MOCLDY    55  25  30 W16       30.16R
FORT COLLINS   MOCLDY    54  27  35 S6        30.14R
LONGMONT       MOCLDY    56  26  31 W3        30.14S
$$

COZ041-046-047-076>085-087-088-270300-
...PIKES PEAK/PALMER DIVIDE AND SOUTHERN FOOTHILLS...

CITY           SKY/WX    TMP DP  RH WIND       PRES   REMARKS
COLO. SPRINGS  MOCLDY    49  21  33 SW10      30.20R
A. F. ACADEMY  NOT AVBL
ELLICOTT       CLOUDY   N/A N/A N/A S3        30.19R
FALCON         MOCLDY    43  22  43 CALM      30.22R
FORT CARSON    MOCLDY    49  26  41 SW7       30.17S
LIMON          MOCLDY    42  27  55 CALM      30.16R
MONUMENT HILL  MOCLDY    41  23  48 CALM      30.21R
TRINIDAD       PTCLDY    47  26  44 E7        30.18R
$$

COZ042>045-048>051-090-091-270300-
...NORTHEAST COLORADO...

CITY           SKY/WX    TMP DP  RH WIND       PRES   REMARKS
GREELEY ARPT   MOCLDY    54  27  35 E10       30.13R
AKRON          CLOUDY    48  28  46 CALM      30.15R
BURLINGTON     CLOUDY    51  28  41 N6        30.15R
WRAY           CLOUDY    51  31  47 N14       30.11F
STERLING       CLOUDY    48  32  53 N6        30.12R
HOLYOKE        PTCLDY    52  32  46 N10G16    30.13R
FORT MORGAN    CLOUDY    50  25  38 E5        30.15R
$$

COZ086-089-092>099-270300-
...SOUTHEAST COLORADO...

CITY           SKY/WX    TMP DP  RH WIND       PRES   REMARKS
PUEBLO         MOCLDY    56  21  25 CALM      30.15R
LA JUNTA       CLEAR     54  21  27 SE3       30.14R
LAMAR          PTCLDY    49  27  42 NE3       30.12R
SPRINGFIELD      N/A     43  25  49 NW7       30.15R
$$


USA.gov is the U.S. government's official web portal to all federal, state and local government web resources and services.